This is the latest recevied weather packets stored in our database for station/object S51UL-6. If no packets are shown the sender has not sent any weather packets the latest 10 day(s).
| Time | Temp. | Humidity | Pressure | Rain* | Wind** | Luminosity | Snow |
|---|---|---|---|---|---|---|---|
| 1787769488 | 21.67° C | 72% | 1017.9 hPa | 0 mm | - | - | - |
| 1787768589 | 22.22° C | 69% | 1017.9 hPa | 0 mm | - | - | - |
| 1787767688 | 23.33° C | 67% | 1017.9 hPa | 0 mm | - | - | - |
| 1787767389 | 23.33° C | 67% | 1017.8 hPa | 0 mm | - | - | - |
| 1787767089 | 23.33° C | 66% | 1017.9 hPa | 0 mm | - | - | - |
| 1787766788 | 23.89° C | 66% | 1017.7 hPa | 0 mm | - | - | - |
| 1787766189 | 24.44° C | 64% | 1017.6 hPa | 0 mm | - | - | - |
| 1787765890 | 24.44° C | 63% | 1017.7 hPa | 0 mm | - | - | - |
| 1787765290 | 25° C | 61% | 1017.7 hPa | 0 mm | - | - | - |
| 1787764989 | 25.56° C | 61% | 1017.7 hPa | 0 mm | - | - | - |
| 1787764689 | 25.56° C | 60% | 1017.6 hPa | 0 mm | - | - | - |
| 1787764389 | 26.11° C | 59% | 1017.6 hPa | 0 mm | - | - | - |
| 1787764090 | 26.67° C | 58% | 1017.5 hPa | 0 mm | - | - | - |
| 1787763789 | 26.67° C | 58% | 1017.6 hPa | 0 mm | - | - | - |
| 1787763489 | 27.22° C | 57% | 1017.6 hPa | 0 mm | - | - | - |
| 1787763189 | 27.22° C | 56% | 1017.5 hPa | 0 mm | - | - | - |
| 1787762589 | 27.22° C | 57% | 1017.4 hPa | 0 mm | - | - | - |
| 1787762289 | 27.22° C | 56% | 1017.7 hPa | 0 mm | - | - | - |
| 1787761991 | 27.78° C | 56% | 1017.6 hPa | 0 mm | - | - | - |
| 1787761390 | 27.78° C | 55% | 1017.7 hPa | 0 mm | - | - | - |
| 1787761090 | 27.78° C | 55% | 1017.7 hPa | 0 mm | - | - | - |
| 1787760789 | 27.78° C | 54% | 1017.9 hPa | 0 mm | - | - | - |
| 1787760489 | 28.33° C | 55% | 1017.8 hPa | 0 mm | - | - | - |
| 1787760190 | 28.33° C | 55% | 1017.8 hPa | 0 mm | - | - | - |
| 1787759890 | 28.33° C | 54% | 1017.8 hPa | 0 mm | - | - | - |
* Rain latest hour (hover to see other rain measurements)
** Current wind speed in m/s (hover to see current wind gust speed)